Location: Hamlin Beach State Park
(43.3614°N, 77.9586°W)
Time: 18:21:28
(UTC-05:00)

OTV 5 (USA 277) - Visible Passes

Search period start: 19 January 2018 00:00
Search period end: 29 January 2018 00:00
Orbit: 404 x 417 km, 43.0° (Epoch: 07 September)

Date Brightness Start Highest point End Pass type
(mag) Time Alt. Az. Time Alt. Az. Time Alt. Az.
21 Jan ? 19:33:03 10° SSW 19:33:24 12° SSW 19:33:24 12° SSW visible
22 Jan ? 18:42:36 10° SSW 18:44:56 18° SSE 18:44:58 18° SSE visible
23 Jan ? 17:52:38 10° S 17:54:03 12° SE 17:55:28 10° ESE visible
23 Jan ? 19:27:36 10° SW 19:29:15 25° SW 19:29:15 25° SW visible
24 Jan ? 18:36:45 10° SW 18:39:50 34° SSE 18:40:43 29° ESE visible
25 Jan ? 17:46:04 10° SSW 17:48:53 25° SSE 17:51:42 10° E visible
25 Jan ? 19:22:33 10° WSW 19:24:54 41° WSW 19:24:54 41° WSW visible
26 Jan ? 18:31:33 10° WSW 18:34:52 59° SSE 18:36:18 30° E visible
26 Jan ? 20:08:46 10° W 20:09:03 12° W 20:09:03 12° W visible
27 Jan ? 19:17:42 10° W 19:20:26 56° W 19:20:26 56° W visible
28 Jan ? 18:26:38 10° W 18:30:00 81° S 18:31:48 25° E visible
28 Jan ? 20:03:57 10° W 20:04:34 15° W 20:04:34 15° W visible
